This demonstration page uses our WeatherBlox Daily Observations layout. Learn more.

Left ArrowRight Arrow

34.74481, -87.66753

Hourly Observations for January 22, 2020

Temp ( °F °C ) Dew Point ( °F °C ) Humidity (%) Winds ( mph kmh ) Pressure ( in mb ) Visibility ( mi km ) Precip ( " mm )
12:53 am 00:53 Clear 28 -2.2 17 -8.3 63 63 Calm 30.42 1030 10 16 0.00 0.00
1:53 am 01:53 Clear 28 -2.2 17 -8.3 63 63 Calm 30.41 1030 10 16 0.00 0.00
2:53 am 02:53 Clear 25 -3.9 18 -7.8 75 75 E 3 6 30.40 1030 10 16 0.00 0.00
3:53 am 03:53 Clear 24 -4.4 19 -7.2 81 81 Calm 30.39 1029 10 16 0.00 0.00
4:53 am 04:53 Clear 25 -3.9 20 -6.7 81 81 Calm 30.38 1029 8 13 0.00 0.00
5:53 am 05:53 Clear 25 -3.9 20 -6.7 81 81 E 6 9 30.37 1029 9 14 0.00 0.00
6:53 am 06:53 Clear 26 -3.3 20 -6.7 78 78 E 3 6 30.37 1028 10 16 0.00 0.00
7:53 am 07:53 Sunny 28 -2.2 20 -6.7 72 72 Calm 30.39 1029 10 16 0.00 0.00
8:53 am 08:53 Sunny 32 0 20 -6.7 61 61 SE 7 11 30.41 1030 10 16 0.00 0.00
9:53 am 09:53 Sunny 36 2.2 20 -6.7 52 52 SE 7 11 30.41 1030 10 16 0.00 0.00
10:53 am 10:53 Sunny 39 3.9 20 -6.7 46 46 SE 6 9 30.40 1030 10 16 0.00 0.00
11:53 am 11:53 Sunny 43 6.1 19 -7.2 38 38 ESE 7 11 30.34 1028 10 16 0.00 0.00
12:53 pm 12:53 Sunny 44 6.7 19 -7.2 37 37 SSE 8 13 30.31 1026 10 16 0.00 0.00
1:53 pm 13:53 Sunny 46 7.8 17 -8.3 31 31 SE 8 13 30.27 1025 10 16 0.00 0.00
2:53 pm 14:53 Sunny 47 8.3 15 -9.4 28 28 SSE 8 13 30.26 1025 10 16 0.00 0.00
3:53 pm 15:53 Sunny 47 8.3 14 -10 26 26 SSE 9 15 30.24 1024 10 16 0.00 0.00
4:53 pm 16:53 Sunny 44 6.7 18 -7.8 35 35 SE 5 7 30.23 1024 10 16 0.00 0.00
5:53 pm 17:53 Clear 41 5 21 -6.1 45 45 Calm 30.23 1024 10 16 0.00 0.00
6:53 pm 18:53 Clear 39 3.9 27 -2.8 62 62 ESE 5 7 30.24 1024 10 16 0.00 0.00
7:53 pm 19:53 Clear 40 4.4 25 -3.9 55 55 SE 6 9 30.23 1024 10 16 0.00 0.00
8:53 pm 20:53 Clear 41 5 19 -7.2 41 41 ESE 5 7 30.21 1023 10 16 0.00 0.00
9:53 pm 21:53 Clear 41 5 21 -6.1 45 45 Calm 30.21 1023 10 16 0.00 0.00
10:53 pm 22:53 Clear 39 3.9 25 -3.9 57 57 E 3 6 30.20 1023 10 16 0.00 0.00
11:53 pm 23:53 Clear 40 4.4 24 -4.4 53 53 E 6 9 30.19 1022 10 16 0.00 0.00

Powered by AerisWeather